Time,TemperatureF,DewpointF,PressureIn,WindDirection,WindDirectionDegrees,WindSpeedMPH,WindSpeedGustMPH,Humidity,HourlyPrecipIn,Conditions,Clouds,dailyrainin,SoftwareType,DateUTC
2013-03-14 00:12:00,32.0,23.0,-100.00,NNW,335,8.0,19.0,68,0.00,,,-99.99,,2013-03-14 04:12:00,
2013-03-14 00:22:00,32.0,23.0,-100.00,NNW,335,8.0,19.0,68,0.00,,,-99.99,,2013-03-14 04:22:00,
2013-03-14 00:32:00,32.0,22.0,-100.00,NW,310,7.0,15.0,67,0.00,,,-99.99,,2013-03-14 04:32:00,
2013-03-14 00:42:00,32.0,22.0,-100.00,NW,310,3.0,15.0,65,0.00,,,-99.99,,2013-03-14 04:42:00,
2013-03-14 00:52:00,32.0,22.0,-100.00,NW,310,3.0,15.0,65,0.00,,,-99.99,,2013-03-14 04:52:00,
2013-03-14 01:02:00,32.0,22.0,-100.00,NNW,335,9.0,22.0,65,0.00,,,-99.99,,2013-03-14 05:02:00,
2013-03-14 01:13:00,32.0,21.0,-100.00,NNE,15,6.0,19.0,65,0.00,,,-99.99,,2013-03-14 05:13:00,
2013-03-14 01:22:00,32.0,21.0,-100.00,NNW,335,7.0,19.0,64,0.00,,,-99.99,,2013-03-14 05:22:00,
2013-03-14 01:33:00,32.0,21.0,-100.00,NNW,335,7.0,19.0,64,0.00,,,-99.99,,2013-03-14 05:33:00,
2013-03-14 01:42:00,31.0,20.0,-100.00,NW,310,8.0,19.0,64,0.00,,,-99.99,,2013-03-14 05:42:00,
2013-03-14 01:52:00,31.0,20.0,-100.00,NW,310,8.0,19.0,64,0.00,,,-99.99,,2013-03-14 05:52:00,
2013-03-14 02:02:00,31.0,21.0,-100.00,WNW,300,5.0,15.0,67,21.70,,,-99.99,,2013-03-14 06:02:00,
2013-03-14 02:12:00,31.0,21.0,-100.00,NW,305,5.0,16.0,67,0.00,,,-99.99,,2013-03-14 06:12:00,
2013-03-14 02:22:00,31.0,21.0,-100.00,NW,305,5.0,16.0,67,0.00,,,-99.99,,2013-03-14 06:22:00,
2013-03-14 02:33:00,31.0,21.0,-100.00,NW,325,7.0,16.0,67,0.00,,,-99.99,,2013-03-14 06:33:00,
2013-03-14 02:42:00,31.0,20.0,-100.00,NW,315,4.0,21.0,65,0.00,,,-99.99,,2013-03-14 06:42:00,
2013-03-14 02:52:00,31.0,20.0,-100.00,NW,315,4.0,21.0,65,0.00,,,-99.99,,2013-03-14 06:52:00,
2013-03-14 03:02:00,31.0,19.0,-100.00,NNE,25,7.0,27.0,62,0.00,,,-99.99,,2013-03-14 07:02:00,
2013-03-14 03:12:00,31.0,19.0,-100.00,West,280,2.0,20.0,61,0.00,,,-99.99,,2013-03-14 07:12:00,
2013-03-14 03:22:00,31.0,19.0,-100.00,West,280,2.0,20.0,61,0.00,,,-99.99,,2013-03-14 07:22:00,
2013-03-14 03:32:00,31.0,18.0,-100.00,NW,310,10.0,22.0,60,0.00,,,-99.99,,2013-03-14 07:32:00,
2013-03-14 03:42:00,31.0,18.0,-100.00,West,265,8.0,17.0,61,0.00,,,-99.99,,2013-03-14 07:42:00,
2013-03-14 03:52:00,31.0,18.0,-100.00,West,265,8.0,17.0,61,0.00,,,-99.99,,2013-03-14 07:52:00,
2013-03-14 04:02:00,30.0,18.0,-100.00,WSW,255,2.0,12.0,61,0.00,,,-99.99,,2013-03-14 08:02:00,
2013-03-14 04:12:00,30.0,19.0,-100.00,NW,310,3.0,16.0,63,0.00,,,-99.99,,2013-03-14 08:12:00,
2013-03-14 04:22:00,30.0,19.0,-100.00,NW,310,4.0,14.0,63,0.00,,,-99.99,,2013-03-14 08:22:00,
2013-03-14 04:32:00,30.0,19.0,-100.00,NW,310,4.0,14.0,63,0.00,,,-99.99,,2013-03-14 08:32:00,
2013-03-14 04:42:00,30.0,19.0,-100.00,West,265,3.0,15.0,62,0.00,,,-99.99,,2013-03-14 08:42:00,
2013-03-14 04:52:00,30.0,19.0,-100.00,WNW,285,8.0,21.0,62,0.00,,,-99.99,,2013-03-14 08:52:00,
2013-03-14 05:02:00,30.0,19.0,-100.00,WNW,285,8.0,21.0,62,0.00,,,-99.99,,2013-03-14 09:02:00,
2013-03-14 05:12:00,30.0,19.0,-100.00,NW,305,9.0,29.0,62,0.00,,,-99.99,,2013-03-14 09:12:00,
2013-03-14 05:22:00,30.0,19.0,-100.00,NNW,335,10.0,17.0,62,0.00,,,-99.99,,2013-03-14 09:22:00,
2013-03-14 05:32:00,30.0,19.0,-100.00,NNW,335,10.0,17.0,62,0.00,,,-99.99,,2013-03-14 09:32:00,
2013-03-14 05:42:00,30.0,18.0,-100.00,NW,325,2.0,17.0,62,0.00,,,-99.99,,2013-03-14 09:42:00,
2013-03-14 05:52:00,30.0,18.0,-100.00,NW,305,9.0,21.0,62,0.00,,,-99.99,,2013-03-14 09:52:00,
2013-03-14 06:02:00,30.0,18.0,-100.00,NW,305,9.0,21.0,62,0.00,,,-99.99,,2013-03-14 10:02:00,
2013-03-14 06:12:00,30.0,18.0,-100.00,WNW,290,10.0,24.0,61,0.00,,,-99.99,,2013-03-14 10:12:00,
2013-03-14 06:22:00,30.0,18.0,-100.00,WNW,290,10.0,24.0,61,0.00,,,-99.99,,2013-03-14 10:22:00,
2013-03-14 06:32:00,30.0,18.0,-100.00,NW,310,9.0,36.0,61,0.00,,,-99.99,,2013-03-14 10:32:00,
2013-03-14 06:42:00,30.0,19.0,-100.00,NNW,330,7.0,29.0,65,0.00,,,-99.99,,2013-03-14 10:42:00,
2013-03-14 06:52:00,30.0,20.0,-100.00,NW,325,5.0,23.0,66,0.00,,,-99.99,,2013-03-14 10:52:00,
2013-03-14 07:02:00,30.0,20.0,-100.00,NW,325,5.0,23.0,66,0.00,,,-99.99,,2013-03-14 11:02:00,
2013-03-14 07:12:00,30.0,20.0,-100.00,NW,315,10.0,19.0,66,0.00,,,-99.99,,2013-03-14 11:12:00,
2013-03-14 07:22:00,30.0,18.0,-100.00,NNW,340,10.0,22.0,62,0.00,,,-99.99,,2013-03-14 11:22:00,
2013-03-14 07:33:00,30.0,18.0,-100.00,NNW,340,10.0,22.0,62,0.00,,,-99.99,,2013-03-14 11:33:00,
2013-03-14 07:42:00,30.0,17.0,-100.00,NNW,335,12.0,24.0,60,0.00,,,-99.99,,2013-03-14 11:42:00,
2013-03-14 07:52:00,30.0,17.0,-100.00,NW,325,10.0,24.0,59,0.00,,,-99.99,,2013-03-14 11:52:00,
2013-03-14 08:02:00,30.0,17.0,-100.00,NW,325,10.0,24.0,59,0.00,,,-99.99,,2013-03-14 12:02:00,
2013-03-14 08:12:00,30.0,17.0,-100.00,NNW,330,14.0,22.0,59,0.00,,,-99.99,,2013-03-14 12:12:00,
2013-03-14 08:22:00,30.0,17.0,-100.00,NNW,335,12.0,24.0,59,0.00,,,-99.99,,2013-03-14 12:22:00,
2013-03-14 08:33:00,30.0,17.0,-100.00,NNW,335,12.0,24.0,59,0.00,,,-99.99,,2013-03-14 12:33:00,
2013-03-14 08:42:00,30.0,17.0,-100.00,NW,310,6.0,19.0,59,0.00,,,-99.99,,2013-03-14 12:42:00,
2013-03-14 08:52:00,30.0,17.0,-100.00,NW,310,6.0,19.0,59,0.00,,,-99.99,,2013-03-14 12:52:00,
2013-03-14 09:02:00,30.0,17.0,-100.00,NNW,335,12.0,26.0,58,0.00,,,-99.99,,2013-03-14 13:02:00,
2013-03-14 09:12:00,30.0,17.0,-100.00,NNW,335,14.0,25.0,58,0.00,,,-99.99,,2013-03-14 13:12:00,
2013-03-14 09:22:00,30.0,17.0,-100.00,NNW,335,14.0,25.0,58,0.00,,,-99.99,,2013-03-14 13:22:00,
2013-03-14 09:32:00,31.0,17.0,-100.00,NNW,345,13.0,27.0,57,0.00,,,-99.99,,2013-03-14 13:32:00,
2013-03-14 09:42:00,31.0,17.0,-100.00,NNW,330,14.0,22.0,56,0.00,,,-99.99,,2013-03-14 13:42:00,
2013-03-14 09:52:00,32.0,18.0,-100.00,WNW,290,7.0,22.0,55,0.00,,,-99.99,,2013-03-14 13:52:00,
2013-03-14 10:02:00,32.0,18.0,-100.00,WNW,290,7.0,22.0,55,0.00,,,-99.99,,2013-03-14 14:02:00,
2013-03-14 10:12:00,32.0,17.0,-100.00,NNW,330,12.0,27.0,55,0.00,,,-99.99,,2013-03-14 14:12:00,
2013-03-14 10:22:00,32.0,17.0,-100.00,NNW,330,12.0,27.0,55,0.00,,,-99.99,,2013-03-14 14:22:00,
2013-03-14 10:32:00,33.0,18.0,-100.00,NNW,330,11.0,28.0,55,0.00,,,-99.99,,2013-03-14 14:32:00,
2013-03-14 10:42:00,33.0,18.0,-100.00,NW,315,13.0,26.0,55,0.00,,,-99.99,,2013-03-14 14:42:00,
2013-03-14 10:52:00,33.0,18.0,-100.00,NW,315,13.0,26.0,55,0.00,,,-99.99,,2013-03-14 14:52:00,
2013-03-14 11:02:00,33.0,18.0,-100.00,NW,310,12.0,23.0,54,0.00,,,-99.99,,2013-03-14 15:02:00,
2013-03-14 11:12:00,33.0,19.0,-100.00,NW,315,13.0,22.0,54,0.00,,,-99.99,,2013-03-14 15:12:00,
2013-03-14 11:22:00,33.0,18.0,-100.00,NW,325,12.0,25.0,53,0.00,,,-99.99,,2013-03-14 15:22:00,
2013-03-14 11:33:00,33.0,18.0,-100.00,NW,325,12.0,25.0,53,0.00,,,-99.99,,2013-03-14 15:33:00,
2013-03-14 11:43:00,34.0,18.0,-100.00,West,280,9.0,25.0,52,0.00,,,-99.99,,2013-03-14 15:43:00,
2013-03-14 11:52:00,34.0,18.0,-100.00,West,280,9.0,25.0,52,0.00,,,-99.99,,2013-03-14 15:52:00,
2013-03-14 12:03:00,35.0,18.0,-100.00,NNW,340,7.0,21.0,50,0.00,,,-99.99,,2013-03-14 16:03:00,
2013-03-14 12:12:00,36.0,19.0,-100.00,NNW,335,13.0,26.0,50,0.00,,,-99.99,,2013-03-14 16:12:00,
2013-03-14 12:23:00,36.0,19.0,-100.00,NNW,335,13.0,26.0,50,0.00,,,-99.99,,2013-03-14 16:23:00,
2013-03-14 12:32:00,36.0,18.0,-100.00,NNW,330,11.0,30.0,49,0.00,,,-99.99,,2013-03-14 16:32:00,
2013-03-14 12:42:00,36.0,19.0,-100.00,NNW,330,12.0,32.0,50,0.00,,,-99.99,,2013-03-14 16:42:00,
2013-03-14 12:52:00,37.0,19.0,-100.00,North,350,7.0,19.0,48,0.00,,,-99.99,,2013-03-14 16:52:00,
2013-03-14 13:02:00,37.0,19.0,-100.00,North,350,7.0,19.0,48,0.00,,,-99.99,,2013-03-14 17:02:00,
2013-03-14 13:12:00,36.0,19.0,-100.00,NNE,20,14.0,29.0,48,0.00,,,-99.99,,2013-03-14 17:12:00,
2013-03-14 13:23:00,36.0,19.0,-100.00,NNE,20,14.0,29.0,48,0.00,,,-99.99,,2013-03-14 17:23:00,
2013-03-14 13:33:00,38.0,20.0,-100.00,NNW,345,9.0,26.0,48,0.00,,,-99.99,,2013-03-14 17:33:00,
2013-03-14 13:42:00,38.0,20.0,-100.00,North,0,9.0,20.0,47,0.00,,,-99.99,,2013-03-14 17:42:00,
2013-03-14 13:52:00,38.0,20.0,-100.00,North,0,9.0,20.0,47,0.00,,,-99.99,,2013-03-14 17:52:00,
2013-03-14 14:03:00,38.0,19.0,-100.00,NW,315,13.0,24.0,46,0.00,,,-99.99,,2013-03-14 18:03:00,
2013-03-14 14:12:00,40.0,20.0,-100.00,NW,310,9.0,22.0,45,0.00,,,-99.99,,2013-03-14 18:12:00,
2013-03-14 14:23:00,38.0,19.0,-100.00,North,5,8.0,24.0,45,0.00,,,-99.99,,2013-03-14 18:23:00,
2013-03-14 14:33:00,38.0,19.0,-100.00,North,5,8.0,24.0,45,0.00,,,-99.99,,2013-03-14 18:33:00,
2013-03-14 14:43:00,39.0,19.0,-100.00,NW,320,16.0,27.0,44,0.00,,,-99.99,,2013-03-14 18:43:00,
2013-03-14 14:52:00,40.0,19.0,-100.00,NW,325,11.0,24.0,43,0.00,,,-99.99,,2013-03-14 18:52:00,
2013-03-14 15:03:00,40.0,19.0,-100.00,NW,325,11.0,24.0,43,0.00,,,-99.99,,2013-03-14 19:03:00,
2013-03-14 15:12:00,39.0,19.0,-100.00,NNW,345,9.0,22.0,43,0.00,,,-99.99,,2013-03-14 19:12:00,
2013-03-14 15:23:00,39.0,19.0,-100.00,NNW,335,7.0,23.0,44,0.00,,,-99.99,,2013-03-14 19:23:00,
2013-03-14 15:32:00,39.0,19.0,-100.00,NNW,335,7.0,23.0,44,0.00,,,-99.99,,2013-03-14 19:32:00,
2013-03-14 15:42:00,40.0,19.0,-100.00,WNW,295,8.0,17.0,43,0.00,,,-99.99,,2013-03-14 19:42:00,
2013-03-14 15:52:00,40.0,19.0,-100.00,NW,320,10.0,22.0,43,0.00,,,-99.99,,2013-03-14 19:52:00,
2013-03-14 16:02:00,40.0,19.0,-100.00,NW,320,10.0,22.0,43,0.00,,,-99.99,,2013-03-14 20:02:00,
2013-03-14 16:12:00,40.0,19.0,-100.00,NNW,330,12.0,24.0,43,0.00,,,-99.99,,2013-03-14 20:12:00,
2013-03-14 16:22:00,42.0,20.0,-100.00,NW,310,6.0,26.0,42,0.00,,,-99.99,,2013-03-14 20:22:00,
2013-03-14 16:32:00,42.0,20.0,-100.00,NW,310,6.0,26.0,42,0.00,,,-99.99,,2013-03-14 20:32:00,
2013-03-14 16:42:00,40.0,19.0,-100.00,NNW,335,12.0,22.0,42,0.00,,,-99.99,,2013-03-14 20:42:00,
2013-03-14 16:52:00,41.0,19.0,-100.00,NNW,330,11.0,23.0,41,0.00,,,-99.99,,2013-03-14 20:52:00,
2013-03-14 17:03:00,41.0,19.0,-100.00,NNW,330,11.0,23.0,41,0.00,,,-99.99,,2013-03-14 21:03:00,
2013-03-14 17:12:00,41.0,19.0,-100.00,NW,315,11.0,21.0,41,0.00,,,-99.99,,2013-03-14 21:12:00,
2013-03-14 17:22:00,41.0,19.0,-100.00,NW,315,11.0,21.0,41,0.00,,,-99.99,,2013-03-14 21:22:00,
2013-03-14 17:33:00,42.0,19.0,-100.00,NNW,345,8.0,19.0,40,0.00,,,-99.99,,2013-03-14 21:33:00,
2013-03-14 17:43:00,42.0,19.0,-100.00,NW,325,7.0,21.0,40,0.00,,,-99.99,,2013-03-14 21:43:00,
2013-03-14 17:53:00,42.0,19.0,-100.00,NW,325,9.0,21.0,40,0.00,,,-99.99,,2013-03-14 21:53:00,
2013-03-14 18:04:00,42.0,19.0,-100.00,NW,325,9.0,21.0,40,0.00,,,-99.99,,2013-03-14 22:04:00,
2013-03-14 18:13:00,42.0,18.0,-100.00,NNW,330,12.0,22.0,39,0.00,,,-99.99,,2013-03-14 22:13:00,
2013-03-14 18:23:00,42.0,18.0,-100.00,NNW,330,12.0,22.0,39,0.00,,,-99.99,,2013-03-14 22:23:00,
2013-03-14 18:33:00,42.0,19.0,-100.00,NW,315,7.0,17.0,39,0.00,,,-99.99,,2013-03-14 22:33:00,
2013-03-14 18:42:00,42.0,18.0,-100.00,NW,315,7.0,17.0,39,0.00,,,-99.99,,2013-03-14 22:42:00,
2013-03-14 18:52:00,42.0,18.0,-100.00,NW,315,7.0,17.0,39,0.00,,,-99.99,,2013-03-14 22:52:00,
2013-03-14 19:03:00,41.0,18.0,-100.00,NNW,330,7.0,14.0,39,0.00,,,-99.99,,2013-03-14 23:03:00,
2013-03-14 19:12:00,41.0,18.0,-100.00,North,350,2.0,7.0,40,0.00,,,-99.99,,2013-03-14 23:12:00,
2013-03-14 19:22:00,40.0,18.0,-100.00,NNE,15,3.0,9.0,41,0.00,,,-99.99,,2013-03-14 23:22:00,
2013-03-14 19:33:00,40.0,18.0,-100.00,NNE,15,3.0,9.0,41,0.00,,,-99.99,,2013-03-14 23:33:00,
2013-03-14 19:42:00,40.0,18.0,-100.00,NNW,330,4.0,8.0,41,0.00,,,-99.99,,2013-03-14 23:42:00,
2013-03-14 19:53:00,39.0,18.0,-100.00,North,5,1.0,4.0,42,0.00,,,-99.99,,2013-03-14 23:53:00,
2013-03-14 20:02:00,39.0,18.0,-100.00,North,5,1.0,4.0,42,0.00,,,-99.99,,2013-03-15 00:02:00,
2013-03-14 20:12:00,39.0,19.0,-100.00,NNW,330,6.0,16.0,43,0.00,,,-99.99,,2013-03-15 00:12:00,
2013-03-14 20:23:00,39.0,19.0,-100.00,NW,325,6.0,11.0,43,0.00,,,-99.99,,2013-03-15 00:23:00,
2013-03-14 20:32:00,39.0,19.0,-100.00,NW,325,6.0,11.0,43,0.00,,,-99.99,,2013-03-15 00:32:00,
2013-03-14 20:42:00,39.0,19.0,-100.00,NNW,330,4.0,10.0,44,0.00,,,-99.99,,2013-03-15 00:42:00,
2013-03-14 20:52:00,39.0,19.0,-100.00,NNW,330,4.0,10.0,44,0.00,,,-99.99,,2013-03-15 00:52:00,
2013-03-14 21:02:00,39.0,19.0,-100.00,NW,320,4.0,12.0,45,0.00,,,-99.99,,2013-03-15 01:02:00,
2013-03-14 21:12:00,39.0,19.0,-100.00,NW,320,5.0,8.0,45,0.00,,,-99.99,,2013-03-15 01:12:00,
2013-03-14 21:22:00,38.0,19.0,-100.00,NW,315,1.0,6.0,46,0.00,,,-99.99,,2013-03-15 01:22:00,
2013-03-14 21:32:00,38.0,19.0,-100.00,NW,315,1.0,6.0,46,0.00,,,-99.99,,2013-03-15 01:32:00,
2013-03-14 21:42:00,38.0,19.0,-100.00,North,5,2.0,7.0,46,0.00,,,-99.99,,2013-03-15 01:42:00,
2013-03-14 21:52:00,38.0,19.0,-100.00,North,5,2.0,7.0,46,0.00,,,-99.99,,2013-03-15 01:52:00,
2013-03-14 22:03:00,38.0,20.0,-100.00,North,0,1.0,7.0,47,0.00,,,-99.99,,2013-03-15 02:03:00,
2013-03-14 22:12:00,38.0,20.0,-100.00,North,0,3.0,12.0,47,0.00,,,-99.99,,2013-03-15 02:12:00,
2013-03-14 22:22:00,38.0,20.0,-100.00,North,0,3.0,12.0,47,0.00,,,-99.99,,2013-03-15 02:22:00,
2013-03-14 22:32:00,38.0,19.0,-100.00,NNE,15,2.0,11.0,47,0.00,,,-99.99,,2013-03-15 02:32:00,
2013-03-14 22:42:00,38.0,20.0,-100.00,North,10,5.0,9.0,48,0.00,,,-99.99,,2013-03-15 02:42:00,
2013-03-14 22:52:00,38.0,20.0,-100.00,North,10,5.0,9.0,48,0.00,,,-99.99,,2013-03-15 02:52:00,
2013-03-14 23:02:00,37.0,19.0,-100.00,North,0,3.0,9.0,48,0.00,,,-99.99,,2013-03-15 03:02:00,
2013-03-14 23:12:00,37.0,20.0,-100.00,NNW,340,4.0,12.0,49,0.00,,,-99.99,,2013-03-15 03:12:00,
2013-03-14 23:22:00,37.0,20.0,-100.00,NNW,340,4.0,12.0,49,0.00,,,-99.99,,2013-03-15 03:22:00,
2013-03-14 23:33:00,37.0,20.0,-100.00,NNW,330,2.0,16.0,49,0.00,,,-99.99,,2013-03-15 03:33:00,
2013-03-14 23:43:00,37.0,20.0,-100.00,NNW,330,3.0,12.0,50,0.00,,,-99.99,,2013-03-15 03:43:00,
2013-03-14 23:52:00,36.0,20.0,-100.00,SW,230,1.0,6.0,51,0.00,,,-99.99,,2013-03-15 03:52:00,